軌道要素
by Kenji Muraoka,
from 22 observations 1974 July 19 to 1995 Dec. 31,
mean residual is +/- 0.89 arc seconds.
Epoch = 1995 May 3.0 TT JDT = 2449840.5
T = 1995 May 5.04187 +/- 0.00062 (m.e.) TT
Peri. = 323.54591 +/- 0.00212
Node = 42.04065 +/- 0.00211 (2000.0)
Incl. = 3.67356 +/- 0.00006
q = 1.0355492 +/- 0.0000051 AU
e = 0.7103049 +/- 0.0000011
a = 3.5746175 +/- 0.0000063 AU
n = 0.14583431 +/- 0.00000038
P = 6.758 +/- 0.0000178 years
A1 = +0.254 +/- 0.028
A2 = +0.01913 +/- 0.00034
|